SM5RVH-10 Weather Reports


Display with metric or nautical units.
time (UTC)temp
F
wind
direction
speed
MPH
gust
MPH
rain 1hr
in
rain 24hr
in
rain mn
in
humidity
%
barometer
mb
20260906083503 59 252 3.0 7.0 0.00 0.09 0.01 100 1014.9
20260906083003 58 249 1.0 7.0 0.00 0.09 0.01 100 1014.9
20260906082503 58 248 1.0 8.0 0.00 0.09 0.01 100 1014.9
20260906082024 57 249 2.0 8.0 0.00 0.09 0.01 100 1014.9
20260906081503 56 251 1.0 5.0 0.00 0.09 0.01 100 1014.8
20260906081003 56 251 1.0 4.0 0.00 0.09 0.01 100 1014.8
20260906080503 56 251 1.0 7.0 0.00 0.09 0.01 100 1014.7
20260906080003 55 251 1.0 7.0 0.00 0.09 0.01 100 1014.6
20260906075503 55 251 1.0 4.0 0.00 0.09 0.01 100 1014.6
20260906075004 55 251 2.0 7.0 0.00 0.09 0.01 100 1014.5
20260906074503 54 250 2.0 7.0 0.00 0.09 0.01 100 1014.4
20260906074003 54 249 2.0 5.0 0.00 0.09 0.01 100 1014.4
20260906073503 54 248 2.0 7.0 0.00 0.09 0.01 100 1014.3
20260906073003 53 247 2.0 7.0 0.00 0.09 0.01 100 1014.3
20260906072503 53 247 1.0 4.0 0.00 0.09 0.01 100 1014.3
20260906072003 53 247 1.0 3.0 0.00 0.09 0.01 100 1014.1
20260906071503 53 247 1.0 5.0 0.00 0.09 0.01 100 1014.1
20260906071003 53 248 2.0 5.0 0.00 0.09 0.01 100 1014.1
20260906070503 52 249 1.0 5.0 0.00 0.09 0.01 100 1014.0
20260906070024 52 250 1.0 5.0 0.00 0.09 0.01 100 1013.9
20260906065524 52 250 0.0 2.0 0.00 0.09 0.01 100 1013.9
20260906065003 52 250 1.0 3.0 0.00 0.09 0.01 100 1013.8
20260906064503 52 250 1.0 2.0 0.00 0.09 0.01 100 1013.8
20260906064003 52 250 1.0 2.0 0.00 0.09 0.01 100 1013.8
20260906063503 51 250 1.0 2.0 0.00 0.09 0.01 100 1013.8
20260906063003 51 260 1.0 5.0 0.00 0.09 0.01 100 1013.7
20260906062503 51 268 1.0 5.0 0.00 0.09 0.01 100 1013.8
20260906062003 51 286 1.0 2.0 0.00 0.09 0.01 100 1013.8
20260906061503 51 286 1.0 2.0 0.00 0.09 0.01 100 1013.8
20260906061003 50 286 0.0 2.0 0.00 0.09 0.01 100 1013.7
20260906060503 50 286 0.0 3.0 0.00 0.09 0.01 100 1013.7
20260906060003 50 286 1.0 3.0 0.00 0.09 0.01 100 1013.6
20260906055524 50 287 1.0 3.0 0.00 0.09 0.01 100 1013.5
20260906055003 50 294 1.0 4.0 0.00 0.09 0.01 100 1013.5
20260906054524 50 300 1.0 4.0 0.00 0.09 0.01 100 1013.5
20260906054024 49 305 1.0 4.0 0.00 0.09 0.01 100 1013.6
20260906053524 49 306 0.0 3.0 0.00 0.09 0.01 100 1013.4
20260906053024 48 0 0.0 0.0 0.00 0.09 0.01 100 1013.3
20260906052503 48 0 0.0 0.0 0.00 0.09 0.01 100 1013.1
20260906052003 48 0 0.0 0.0 0.00 0.09 0.01 100 1013.2
20260906051503 48 0 0.0 0.0 0.00 0.09 0.01 100 1013.1
20260906051024 48 0 0.0 0.0 0.00 0.09 0.01 100 1013.0
20260906050524 48 0 0.0 0.0 0.00 0.09 0.01 100 1012.9
20260906050003 48 306 0.0 1.0 0.00 0.09 0.01 100 1012.9
20260906045503 48 306 0.0 1.0 0.00 0.09 0.01 100 1012.9
20260906045003 48 306 0.0 1.0 0.00 0.09 0.01 100 1012.8
20260906044503 48 306 0.0 1.0 0.00 0.09 0.01 100 1012.8
20260906044024 48 306 0.0 1.0 0.00 0.09 0.01 100 1012.7
20260906043524 48 306 0.0 1.0 0.00 0.09 0.01 100 1012.6
20260906043003 48 306 0.0 1.0 0.00 0.09 0.01 100 1012.5
20260906042503 48 306 0.0 1.0 0.00 0.09 0.01 100 1012.4
20260906042003 48 306 0.0 1.0 0.00 0.09 0.01 100 1012.4
20260906041503 48 306 0.0 1.0 0.00 0.09 0.01 100 1012.3
20260906041003 48 306 0.0 1.0 0.00 0.09 0.01 100 1012.2
20260906040503 48 306 0.0 1.0 0.00 0.09 0.01 100 1012.2
20260906040003 48 306 0.0 1.0 0.00 0.09 0.01 100 1012.3
20260906035503 48 0 0.0 0.0 0.00 0.09 0.01 100 1012.2
20260906035003 48 306 0.0 1.0 0.00 0.09 0.01 100 1012.1
20260906034503 48 306 0.0 1.0 0.00 0.09 0.01 100 1012.0
20260906034003 48 306 0.0 1.0 0.00 0.09 0.01 100 1012.0
20260906033503 48 306 0.0 2.0 0.00 0.09 0.01 100 1011.8
20260906033003 48 306 0.0 2.0 0.00 0.09 0.01 100 1011.9
20260906032524 48 306 0.0 1.0 0.00 0.09 0.01 100 1011.9
20260906032003 48 306 0.0 1.0 0.00 0.09 0.01 100 1011.8
20260906031503 48 306 0.0 1.0 0.00 0.09 0.01 100 1011.8
20260906031003 48 306 0.0 1.0 0.00 0.09 0.01 100 1011.7
20260906030503 48 306 0.0 2.0 0.00 0.09 0.01 100 1011.7
20260906030003 48 306 0.0 2.0 0.00 0.09 0.01 100 1011.6
20260906025503 48 0 0.0 0.0 0.00 0.09 0.01 100 1011.6
20260906025003 48 306 0.0 1.0 0.01 0.09 0.01 100 1011.5
20260906024503 48 306 0.0 1.0 0.01 0.09 0.01 100 1011.5
20260906024003 48 306 0.0 1.0 0.01 0.09 0.01 100 1011.4
20260906023503 49 306 0.0 1.0 0.01 0.09 0.01 100 1011.3
20260906023003 49 306 0.0 1.0 0.01 0.09 0.01 100 1011.2
20260906022503 49 306 0.0 1.0 0.01 0.09 0.01 100 1011.2
20260906022003 49 306 0.0 1.0 0.01 0.09 0.01 100 1011.1
20260906021524 49 306 0.0 1.0 0.01 0.09 0.01 100 1011.0
20260906021003 49 306 0.0 1.0 0.01 0.09 0.01 100 1010.9
20260906020503 49 306 0.0 1.0 0.01 0.09 0.01 100 1010.9
20260906020024 49 306 0.0 2.0 0.01 0.09 0.01 100 1010.8
20260906015503 49 306 0.0 2.0 0.01 0.09 0.01 100 1010.7
20260906015003 49 306 0.0 2.0 0.00 0.08 0.00 100 1010.6
20260906014503 49 306 0.0 1.0 0.00 0.08 0.00 100 1010.6
20260906014003 49 306 0.0 1.0 0.00 0.08 0.00 100 1010.5
20260906013503 49 0 0.0 0.0 0.00 0.08 0.00 100 1010.5
20260906013003 49 0 0.0 0.0 0.00 0.08 0.00 100 1010.4
20260906012503 49 306 0.0 1.0 0.00 0.08 0.00 100 1010.4
20260906012003 49 306 0.0 1.0 0.00 0.08 0.00 100 1010.2
20260906011503 49 306 0.0 1.0 0.00 0.08 0.00 100 1010.2
20260906011003 49 306 0.0 1.0 0.00 0.08 0.00 100 1010.1
20260906010503 49 306 0.0 3.0 0.00 0.08 0.00 100 1010.0
20260906010003 49 306 0.0 3.0 0.00 0.08 0.00 100 1010.0
20260906005524 49 306 0.0 2.0 0.00 0.08 0.00 100 1010.0
20260906005024 49 0 0.0 0.0 0.00 0.08 0.00 100 1010.0
20260906004503 49 0 0.0 0.0 0.00 0.08 0.00 100 1009.9
20260906004024 49 0 0.0 0.0 0.00 0.08 0.00 100 1009.8
20260906003503 49 0 0.0 0.0 0.00 0.08 0.00 100 1009.8
20260906003003 49 0 0.0 0.0 0.00 0.08 0.00 100 1009.7
20260906002503 49 0 0.0 0.0 0.00 0.08 0.00 100 1009.7
20260906002025 49 0 0.0 0.0 0.00 0.08 0.00 100 1009.6
20260906001504 49 0 0.0 0.0 0.00 0.09 0.00 100 1009.5
20260906001004 49 0 0.0 0.0 0.00 0.09 0.00 100 1009.5
20260906000504 49 308 0.0 1.0 0.00 0.09 0.00 100 1009.4
20260906000004 49 308 0.0 1.0 0.00 0.09 0.00 100 1009.2
20260905235504 49 0 0.0 0.0 0.00 0.09 0.00 100 1009.2
20260905235004 49 0 0.0 0.0 0.00 0.09 0.00 100 1009.1
20260905234504 49 308 0.0 1.0 0.00 0.09 0.00 100 1009.0
20260905234004 49 308 0.0 1.0 0.00 0.09 0.00 100 1008.9
20260905233504 49 308 0.0 1.0 0.00 0.09 0.00 100 1008.8
20260905233004 49 308 0.0 1.0 0.00 0.09 0.00 100 1008.8
20260905232525 49 308 0.0 1.0 0.00 0.09 0.00 100 1008.8
20260905232004 49 308 0.0 1.0 0.00 0.09 0.00 100 1008.7
20260905231525 49 308 0.0 1.0 0.00 0.09 0.00 100 1008.7
20260905231004 49 308 0.0 1.0 0.00 0.09 0.00 100 1008.6
20260905230525 49 308 0.0 1.0 0.00 0.09 0.00 100 1008.5
20260905230004 49 308 0.0 1.0 0.00 0.09 0.00 100 1008.5
20260905225504 49 308 0.0 1.0 0.00 0.09 0.00 100 1008.4
20260905225004 49 308 0.0 1.0 0.00 0.09 0.00 100 1008.4
20260905224504 49 308 0.0 1.0 0.00 0.09 0.00 100 1008.3
20260905224004 49 308 0.0 1.0 0.00 0.09 0.00 100 1008.1
20260905223504 49 308 0.0 1.0 0.00 0.09 0.00 100 1008.0
20260905223004 49 308 0.0 1.0 0.00 0.09 0.00 100 1008.0
20260905222504 49 308 0.0 1.0 0.00 0.09 0.00 100 1007.9
20260905222004 49 0 0.0 0.0 0.00 0.09 0.00 100 1007.9
20260905221504 49 308 0.0 1.0 0.00 0.09 0.00 100 1007.8
20260905221004 49 308 0.0 1.0 0.00 0.09 0.00 100 1007.8
20260905220504 49 0 0.0 0.0 0.00 0.09 0.00 100 1007.7
20260905220025 49 0 0.0 0.0 0.00 0.09 0.00 100 1007.7
20260905215525 49 0 0.0 0.0 0.00 0.09 0.09 100 1007.5
20260905215004 49 0 0.0 0.0 0.00 0.09 0.09 100 1007.5
20260905214504 49 0 0.0 0.0 0.00 0.09 0.09 100 1007.4
20260905214025 49 0 0.0 0.0 0.00 0.09 0.09 100 1007.4
20260905213504 49 0 0.0 0.0 0.00 0.09 0.09 100 1007.3
20260905213004 49 0 0.0 0.0 0.00 0.09 0.09 100 1007.2
20260905212525 49 0 0.0 0.0 0.00 0.09 0.09 100 1007.1
20260905212025 49 0 0.0 0.0 0.00 0.09 0.09 100 1007.0
20260905211525 49 0 0.0 0.0 0.00 0.09 0.09 100 1006.9
20260905211025 48 0 0.0 0.0 0.00 0.09 0.09 100 1006.9
20260905210504 48 0 0.0 0.0 0.00 0.09 0.09 100 1006.9
20260905210004 48 0 0.0 0.0 0.00 0.09 0.09 100 1006.7
20260905205504 48 0 0.0 0.0 0.00 0.09 0.09 100 1006.6
20260905205004 48 0 0.0 0.0 0.00 0.09 0.09 100 1006.5
20260905204504 48 306 0.0 1.0 0.00 0.09 0.09 100 1006.5
20260905204025 48 306 0.0 1.0 0.00 0.09 0.09 100 1006.5
20260905203504 48 306 0.0 1.0 0.00 0.09 0.09 100 1006.3
20260905203004 48 0 0.0 0.0 0.00 0.09 0.09 100 1006.3
20260905202504 48 0 0.0 0.0 0.00 0.09 0.09 100 1006.1
20260905202004 48 306 0.0 1.0 0.01 0.09 0.09 100 1006.2
20260905201504 48 306 0.0 1.0 0.01 0.09 0.09 100 1006.2
20260905201004 48 0 0.0 0.0 0.01 0.09 0.09 100 1006.0
20260905200525 48 0 0.0 0.0 0.01 0.09 0.09 100 1006.0
20260905200004 49 0 0.0 0.0 0.01 0.09 0.09 100 1005.9
20260905195504 49 306 0.0 1.0 0.01 0.09 0.09 100 1005.9
20260905195004 49 306 0.0 1.0 0.01 0.09 0.09 100 1005.7
20260905194525 49 0 0.0 0.0 0.01 0.09 0.09 100 1005.7
20260905194004 49 0 0.0 0.0 0.01 0.09 0.09 100 1005.6
20260905193504 49 0 0.0 0.0 0.01 0.09 0.09 100 1005.7
20260905193004 49 0 0.0 0.0 0.01 0.09 0.09 100 1005.6
20260905192504 49 0 0.0 0.0 0.01 0.09 0.09 100 1005.6
20260905192004 49 0 0.0 0.0 0.00 0.08 0.08 100 1005.5
20260905191504 49 0 0.0 0.0 0.00 0.08 0.08 100 1005.4
20260905191004 50 0 0.0 0.0 0.00 0.08 0.08 100 1005.4
20260905190504 50 0 0.0 0.0 0.00 0.08 0.08 100 1005.4
20260905190004 50 0 0.0 0.0 0.00 0.08 0.08 100 1005.3
20260905185504 50 0 0.0 0.0 0.00 0.08 0.08 100 1005.4
20260905185004 50 0 0.0 0.0 0.00 0.08 0.08 100 1005.3
20260905184504 50 0 0.0 0.0 0.00 0.08 0.08 100 1005.2
20260905184004 51 0 0.0 0.0 0.00 0.08 0.08 100 1005.1
20260905183504 51 0 0.0 0.0 0.00 0.08 0.08 100 1005.0
20260905183004 51 0 0.0 0.0 0.00 0.08 0.08 100 1005.0
20260905182504 51 0 0.0 0.0 0.00 0.08 0.08 100 1004.9
20260905182004 51 0 0.0 0.0 0.00 0.08 0.08 100 1005.0
20260905181504 52 0 0.0 0.0 0.00 0.08 0.08 100 1005.0
20260905181004 52 0 0.0 0.0 0.00 0.08 0.08 100 1004.9
20260905180504 52 0 0.0 0.0 0.00 0.08 0.08 100 1004.8
20260905180004 53 306 0.0 2.0 0.00 0.08 0.08 100 1004.9
20260905175504 53 306 0.0 2.0 0.00 0.08 0.08 100 1004.8
20260905175004 53 306 0.0 2.0 0.02 0.08 0.08 100 1004.7
20260905174504 53 306 0.0 1.0 0.03 0.08 0.08 100 1004.6
20260905174004 54 306 0.0 1.0 0.05 0.08 0.08 100 1004.6
20260905173525 54 0 0.0 0.0 0.06 0.08 0.08 100 1004.5
20260905173025 54 0 0.0 0.0 0.06 0.08 0.08 100 1004.5
20260905172525 54 306 1.0 3.0 0.06 0.08 0.08 100 1004.4
20260905172004 54 306 1.0 3.0 0.06 0.08 0.08 100 1004.4
20260905171504 54 0 0.0 0.0 0.06 0.08 0.08 100 1004.2
20260905171004 55 0 0.0 0.0 0.06 0.08 0.08 100 1004.1
20260905170525 55 0 0.0 0.0 0.06 0.08 0.08 100 1004.0
20260905170004 55 0 0.0 0.0 0.06 0.08 0.08 100 1004.0
20260905165525 55 0 0.0 0.0 0.06 0.08 0.08 100 1004.2
20260905165004 55 306 0.0 1.0 0.05 0.06 0.06 100 1004.1
20260905164525 56 316 0.0 2.0 0.03 0.05 0.05 100 1004.3
20260905164025 56 304 1.0 3.0 0.02 0.03 0.03 100 1004.2
20260905163504 57 295 1.0 3.0 0.00 0.02 0.02 100 1004.2
20260905163004 58 0 0.0 0.0 0.00 0.02 0.02 100 1004.1
20260905162504 59 0 0.0 0.0 0.00 0.02 0.02 100 1003.8
20260905162025 59 271 0.0 1.0 0.00 0.02 0.02 100 1003.8
20260905161504 60 271 0.0 1.0 0.00 0.02 0.02 100 1003.6
20260905161004 60 271 0.0 1.0 0.00 0.02 0.02 100 1003.6
20260905160504 60 269 1.0 3.0 0.00 0.02 0.02 100 1003.6
20260905160004 60 277 1.0 3.0 0.00 0.02 0.02 100 1003.6
20260905155504 60 287 0.0 3.0 0.00 0.02 0.02 100 1003.6
20260905155004 60 247 0.0 1.0 0.00 0.02 0.02 100 1003.5
20260905154504 60 247 0.0 1.0 0.00 0.02 0.02 100 1003.4
20260905154003 61 247 0.0 1.0 0.00 0.02 0.02 100 1003.4
20260905153504 61 0 0.0 0.0 0.00 0.02 0.02 100 1003.3
20260905153004 61 247 0.0 1.0 0.00 0.02 0.02 100 1003.2
20260905152504 61 247 0.0 3.0 0.00 0.02 0.02 100 1003.1
20260905152004 61 247 1.0 4.0 0.00 0.02 0.02 100 1003.0
20260905151504 62 247 2.0 4.0 0.00 0.02 0.02 100 1003.1
20260905151004 62 247 1.0 4.0 0.00 0.02 0.02 100 1003.1
20260905150504 62 247 1.0 4.0 0.00 0.03 0.02 100 1002.9
20260905150025 62 247 1.0 4.0 0.01 0.05 0.02 100 1002.9
20260905145504 62 247 1.0 4.0 0.01 0.08 0.02 100 1002.8
20260905145004 62 247 0.0 4.0 0.01 0.08 0.02 100 1002.7
20260905144524 62 0 0.0 0.0 0.01 0.09 0.02 100 1002.8
20260905144003 62 0 0.0 0.0 0.01 0.10 0.02 100 1002.8
20260905143504 62 247 0.0 2.0 0.01 0.10 0.02 100 1002.7
20260905143004 62 247 0.0 3.0 0.01 0.10 0.02 100 1002.7
20260905142504 62 247 0.0 3.0 0.01 0.10 0.02 100 1002.7
20260905142004 62 247 0.0 4.0 0.01 0.10 0.02 100 1002.7
20260905141504 62 247 0.0 4.0 0.01 0.10 0.02 100 1002.6
20260905141004 62 247 0.0 2.0 0.01 0.10 0.02 100 1002.6
20260905140503 62 247 0.0 1.0 0.01 0.10 0.02 100 1002.5
20260905140004 62 247 0.0 1.0 0.00 0.09 0.01 100 1002.6
20260905135503 62 247 0.0 1.0 0.00 0.10 0.01 100 1002.6
20260905135003 62 247 0.0 2.0 0.00 0.10 0.01 100 1002.6
20260905134504 62 247 0.0 2.0 0.00 0.10 0.01 100 1002.5
20260905134003 62 247 0.0 1.0 0.00 0.10 0.01 100 1002.5
20260905133503 62 247 0.0 1.0 0.00 0.10 0.01 100 1002.4
20260905133024 62 247 0.0 1.0 0.00 0.10 0.01 100 1002.4
20260905132504 63 246 1.0 4.0 0.00 0.10 0.01 100 1002.4
20260905132003 63 250 2.0 9.0 0.00 0.11 0.01 100 1002.3
20260905131504 63 255 3.0 9.0 0.00 0.12 0.01 100 1002.2
20260905131003 63 259 2.0 8.0 0.00 0.14 0.01 100 1002.3
20260905130503 63 257 2.0 5.0 0.00 0.15 0.01 100 1002.1
20260905130004 63 254 2.0 5.0 0.00 0.15 0.01 100 1002.1
20260905125525 62 252 2.0 5.0 0.00 0.15 0.01 100 1002.1
20260905125004 62 248 2.0 4.0 0.00 0.15 0.01 100 1002.0
20260905124503 62 246 1.0 4.0 0.00 0.15 0.01 100 1002.1
20260905124025 61 246 1.0 4.0 0.00 0.15 0.01 100 1002.1
20260905123524 60 246 2.0 4.0 0.00 0.15 0.01 100 1002.0
20260905123004 60 252 2.0 7.0 0.00 0.15 0.01 100 1001.9
20260905122503 60 264 2.0 7.0 0.00 0.15 0.01 100 1001.9
20260905122004 60 290 1.0 3.0 0.00 0.15 0.01 100 1001.9
20260905121503 60 294 0.0 2.0 0.00 0.15 0.01 100 1001.9
20260905121003 60 295 1.0 4.0 0.00 0.15 0.01 100 1001.9
20260905120504 60 300 1.0 4.0 0.00 0.15 0.01 100 1001.8
20260905120004 60 309 0.0 3.0 0.00 0.15 0.01 100 1001.8
20260905115524 60 284 0.0 2.0 0.00 0.15 0.01 100 1001.8
20260905115003 60 249 0.0 2.0 0.00 0.15 0.01 100 1001.7
20260905114504 60 245 1.0 4.0 0.00 0.15 0.01 100 1001.8
20260905114025 59 247 1.0 5.0 0.00 0.15 0.01 100 1001.7
20260905113503 60 260 1.0 5.0 0.00 0.15 0.01 100 1001.6
20260905113003 60 275 1.0 3.0 0.00 0.15 0.01 100 1001.7
20260905112504 59 289 1.0 4.0 0.00 0.15 0.01 100 1001.6
20260905112003 59 288 1.0 4.0 0.00 0.15 0.01 100 1001.6
20260905111503 59 263 0.0 3.0 0.00 0.15 0.01 100 1001.5
20260905111003 59 248 1.0 3.0 0.00 0.15 0.01 100 1001.5
20260905110503 59 248 1.0 3.0 0.00 0.15 0.01 100 1001.5
20260905110003 59 248 1.0 3.0 0.00 0.15 0.01 100 1001.4
20260905105524 59 248 1.0 4.0 0.00 0.15 0.01 100 1001.4
20260905105003 59 250 2.0 4.0 0.00 0.15 0.01 100 1001.2
20260905104524 59 252 2.0 4.0 0.00 0.15 0.01 100 1001.2
20260905104003 59 252 2.0 4.0 0.00 0.15 0.01 100 1001.1
20260905103503 59 252 2.0 5.0 0.00 0.15 0.01 100 1001.1
20260905103003 59 252 2.0 5.0 0.00 0.15 0.01 100 1001.1
20260905102503 59 251 1.0 5.0 0.00 0.15 0.01 100 1001.0
20260905102003 59 251 1.0 5.0 0.00 0.15 0.01 100 1001.0
20260905101503 59 251 1.0 4.0 0.00 0.15 0.01 100 1001.0
20260905101024 59 253 1.0 4.0 0.00 0.15 0.01 100 1000.9
20260905100503 59 255 2.0 6.0 0.00 0.15 0.01 100 1000.8
20260905100003 59 255 2.0 6.0 0.00 0.15 0.01 100 1000.8
20260905095524 60 257 2.0 4.0 0.00 0.15 0.01 100 1000.7
20260905095003 60 265 1.0 6.0 0.00 0.15 0.01 100 1000.7
20260905094503 60 275 1.0 4.0 0.00 0.15 0.01 100 1000.7
20260905094003 60 275 1.0 3.0 0.00 0.15 0.01 100 1000.6
20260905093503 60 276 0.0 3.0 0.00 0.15 0.01 100 1000.6
20260905093003 59 276 0.0 2.0 0.00 0.15 0.01 100 1000.6
20260905092503 59 290 0.0 3.0 0.00 0.15 0.01 100 1000.5
20260905092003 58 280 1.0 3.0 0.00 0.15 0.01 100 1000.5
20260905091503 58 249 1.0 2.0 0.00 0.15 0.01 100 1000.5
20260905091003 58 248 1.0 3.0 0.00 0.15 0.01 100 1000.4
20260905090503 58 247 1.0 3.0 0.00 0.15 0.01 100 1000.3
20260905090003 58 247 1.0 4.0 0.00 0.15 0.01 100 1000.2
20260905085524 57 248 3.0 10.0 0.00 0.15 0.01 100 1000.2
20260905085003 57 247 2.0 10.0 0.00 0.15 0.01 100 1000.1
20260905084503 57 244 2.0 5.0 0.00 0.15 0.01 100 1000.1
20260905084003 56 245 1.0 5.0 0.00 0.15 0.01 100 1000.0